User: anonymous   Login
Location: Vancouver
(49.2500°N, 123.1330°W)
Time: 16:30:56
(UTC-08:00)
Language:

BREEZE-M DEB (TANK) - Orbit

View from above orbital plane
View from above orbital plane
View from above satellite
View from above satellite

Ground track
Ground track

The orbit data is extracted from the following two-line orbital elements,

1 27821U 03024B   14327.55424786  .00006404  00000-0  80178-3 0  5310
2 27821 049.5911 026.4620 5001142 043.4356 052.3975 05.64122441226964
Epoch (UTC): 23 November 2014 13:18:07
Eccentricity: 0.5001142
inclination: 49.5911°
perigee height: 285 km
apogee height: 13618 km
right ascension of ascending node: 26.4620°
argument of perigee: 43.4356°
revolutions per day: 5.64122441
mean anomaly at epoch: 52.3975°
orbit number at epoch: 22696

The dashed part of the orbit path shows where the satellite is in the earth's shadow,  

DLR